Weather History for Corpus Christi, TX

Change the Weather History Date:

Thursday, May 2, 2013

  Actual Average Record
Temperature  
Mean Temperature 69 °F 75 °F  
Max Temperature 81 °F 84 °F 98 °F (1964)
Min Temperature 56 °F 66 °F 50 °F (1976)
Degree Days  
Heating Degree Days 0 0  
Month to date heating degree days 0 15  
Since 1 July heating degree days 528 896  
Cooling Degree Days 4 10  
Month to date cooling degree days 19 207  
Year to date cooling degree days 562 398  
Growing Degree Days 19 (Base 50)    
Moisture  
Dew Point 59 °F    
Average Humidity 70    
Maximum Humidity 93    
Minimum Humidity 46    
Precipitation  
Precipitation T in 0.07 in 2.96 in (1981)
Month to date precipitation T 1.62  
Year to date precipitation 3.33 6.98  
Snow  
Snow 0.00 in - - ()
Month to date snowfall 0.0  
Since 1 July snowfall 0.0  
Snow Depth 0.00 in    
Sea Level Pressure  
Sea Level Pressure 30.03 in    
Wind  
Wind Speed 20 mph (North)    
Max Wind Speed 38 mph    
Max Gust Speed 45 mph    
Visibility 10 miles    
Events Rain , Thunderstorm    
T = Trace of Precipitation, MM = Missing Value Source: NWS Daily Summary

Daily Weather History Graph

Daily Weather History Graph

Search for Another Location

Airport:

Trip Planner

Search our weather history database for the weather conditions in past years. The results will help you decide how hot, cold, wet, or windy it might be!

Date:

Astronomy

May. 02, 2013 Rise Set
Actual Time 6:49 AM CDT 8:04 PM CDT
Civil Twilight 6:24 AM CDT 8:29 PM CDT
Nautical Twilight 5:55 AM CDT 8:59 PM CDT
Astronomical Twilight 5:24 AM CDT 9:29 PM CDT
Moon 1:59 AM CDT (5/2) 1:31 PM CDT (5/2)
Length of Visible Light 14h 05m
Length of Day
13h 15m
Waning Gibbous, 47% of the Moon is Illuminated
May 2
Waning Gibbous
May 9
New
May 17
First Quarter
May 24
Full
May 31
Last Quarter

Hourly Weather History & Observations

Time (CDT) Temp. Heat Index Dew Point Humidity Pressure Visibility Wind Dir Wind Speed Gust Speed Precip Events Conditions
12:06 AM 75.2 °F - 69.8 °F 83% 29.89 in 10.0 mi SE 9.2 mph - N/A   Scattered Clouds
12:51 AM 73.9 °F - 70.0 °F 87% 29.88 in 10.0 mi SE 9.2 mph - N/A   Partly Cloudy
1:51 AM 73.9 °F - 70.0 °F 87% 29.90 in 10.0 mi ESE 3.5 mph - N/A   Partly Cloudy
2:51 AM 72.0 °F - 69.1 °F 91% 29.92 in 10.0 mi North 3.5 mph - N/A   Partly Cloudy
3:51 AM 73.0 °F - 69.1 °F 87% 29.94 in 10.0 mi North 8.1 mph - N/A   Mostly Cloudy
3:57 AM 73.4 °F - 69.8 °F 88% 29.96 in 10.0 mi North 27.6 mph 42.6 mph N/A   Overcast
4:03 AM 73.4 °F - 69.8 °F 88% 29.97 in 10.0 mi North 25.3 mph 42.6 mph N/A   Overcast
4:23 AM 73.4 °F - 66.2 °F 78% 29.99 in 10.0 mi North 18.4 mph 26.5 mph 0.00 in Rain , Thunderstorm Light Thunderstorms and Rain
4:51 AM 73.0 °F - 64.9 °F 76% 29.96 in 10.0 mi NNE 9.2 mph - 0.00 in   Overcast
5:51 AM 73.0 °F - 64.9 °F 76% 29.87 in 10.0 mi Calm Calm - N/A   Partly Cloudy
6:51 AM 71.1 °F - 64.9 °F 81% 29.88 in 10.0 mi SSE 10.4 mph - N/A   Partly Cloudy
7:51 AM 71.1 °F - 66.9 °F 87% 29.90 in 10.0 mi South 12.7 mph - N/A   Clear
8:47 AM 75.2 °F - 66.2 °F 73% 29.99 in 10.0 mi North 13.8 mph - N/A   Mostly Cloudy
8:51 AM 75.0 °F - 66.9 °F 76% 29.99 in 10.0 mi North 9.2 mph - N/A   Mostly Cloudy
9:18 AM 75.2 °F - 66.2 °F 73% 30.01 in 10.0 mi North 11.5 mph - N/A   Scattered Clouds
9:51 AM 75.0 °F - 66.0 °F 73% 30.03 in 10.0 mi NW 10.4 mph - N/A   Mostly Cloudy
10:51 AM 81.0 °F 81.6 °F 60.1 °F 49% 30.06 in 10.0 mi NW 23.0 mph - N/A   Mostly Cloudy
11:51 AM 80.1 °F 81.1 °F 61.0 °F 52% 30.07 in 10.0 mi NNW 29.9 mph 35.7 mph N/A   Scattered Clouds
12:51 PM 75.9 °F - 60.1 °F 58% 30.07 in 10.0 mi North 31.1 mph 38.0 mph N/A   Scattered Clouds
1:51 PM 73.9 °F - 55.9 °F 53% 30.07 in 5.0 mi North 34.5 mph 42.6 mph N/A   Haze
2:51 PM 73.0 °F - 54.0 °F 51% 30.08 in 5.0 mi North 32.2 mph 36.8 mph N/A   Haze
3:51 PM 73.9 °F - 53.1 °F 48% 30.07 in 10.0 mi NNW 23.0 mph 29.9 mph N/A   Partly Cloudy
4:51 PM 71.1 °F - 52.0 °F 51% 30.09 in 10.0 mi NNW 28.8 mph 33.4 mph N/A   Overcast
5:51 PM 73.0 °F - 52.0 °F 48% 30.10 in 10.0 mi North 24.2 mph 29.9 mph N/A   Mostly Cloudy
6:51 PM 70.0 °F - 51.1 °F 51% 30.11 in 10.0 mi North 28.8 mph 35.7 mph N/A   Partly Cloudy
7:37 PM 64.4 °F - 48.2 °F 56% 30.14 in 10.0 mi North 28.8 mph 35.7 mph N/A   Mostly Cloudy
7:51 PM 64.9 °F - 48.0 °F 54% 30.15 in 10.0 mi North 27.6 mph 38.0 mph N/A   Mostly Cloudy
8:19 PM 62.6 °F - 46.4 °F 55% 30.18 in 10.0 mi North 23.0 mph 34.5 mph N/A   Overcast
8:51 PM 60.1 °F - 45.0 °F 57% 30.20 in 10.0 mi NNW 21.9 mph 32.2 mph N/A   Scattered Clouds
9:51 PM 59.0 °F - 44.1 °F 58% 30.23 in 10.0 mi NNW 26.5 mph 34.5 mph N/A   Mostly Cloudy
10:51 PM 57.9 °F - 42.1 °F 56% 30.27 in 10.0 mi North 31.1 mph 38.0 mph N/A   Overcast
11:51 PM 57.0 °F - 41.0 °F 55% 30.27 in 10.0 mi NNW 26.5 mph 35.7 mph N/A   Overcast